Temp
-13 -12 -12 -12 -12 -12 -11 -11 -11 -11 -12 -12 -12 -13 -15 -15 -15 -15 -15 -14 -14 -14 -13 -13 -13 -13 -13 -13 -13 -13 -13 -12
-15 -14 -12 -12 -12 -12 -11 -11 -11 -11 -12 -12 -13 -15 -15 -15 -15 -15 -15 -14 -14 -14 -14 -13 -13 -13 -13 -13 -13 -13 -13 -12
-15 -14 -13 -13 -12 -12 -11 -11 -11 -11 -12 -12 -13 -15 -15 -16 -15 -15 -14 -14 -14 -14 -14 -14 -13 -13 -13 -13 -13 -13 -13 -12
-16 -16 -14 -13 -13 -12 -12 -11 -11 -11 -12 -12 -13 -14 -15 -15 -15 -15 -15 -15 -14 -14 -14 -14 -14 -13 -13 -13 -13 -13 -13 -13
-16 -16 -15 -14 -13 -12 -12 -11 -11 -12 -12 -13 -13 -14 -15 -16 -15 -15 -15 -15 -15 -14 -14 -14 -14 -14 -13 -13 -13 -13 -13 -14
-16 -15 -14 -14 -13 -12 -12 -12 -12 -12 -12 -13 -13 -15 -15 -15 -15 -16 -15 -15 -15 -15 -14 -14 -14 -14 -14 -13 -13 -13 -13 -13
-16 -15 -15 -14 -13 -12 -11 -11 -12 -12 -13 -13 -14 -15 -16 -15 -16 -16 -15 -15 -15 -15 -14 -14 -14 -14 -14 -14 -13 -14 -13 -13
-17 -15 -14 -14 -13 -12 -12 -12 -12 -12 -13 -14 -14 -16 -16 -15 -16 -16 -15 -15 -15 -15 -14 -14 -14 -14 -14 -14 -14 -14 -13 -12
-16 -14 -14 -14 -13 -12 -12 -12 -12 -13 -14 -14 -15 -16 -16 -16 -16 -16 -15 -15 -15 -15 -14 -14 -14 -13 -13 -13 -13 -13 -13 -14
-16 -15 -14 -13 -13 -12 -12 -12 -12 -14 -15 -15 -16 -16 -16 -16 -16 -16 -15 -15 -15 -15 -14 -14 -14 -14 -14 -14 -13 -12 -13 -13
-15 -15 -14 -13 -13 -13 -13 -13 -13 -16 -15 -16 -16 -16 -16 -16 -17 -16 -15 -15 -15 -15 -15 -14 -14 -14 -14 -14 -13 -13 -13 -13
-16 -15 -14 -14 -14 -14 -14 -14 -14 -14 -15 -16 -16 -16 -16 -16 -17 -16 -16 -16 -15 -15 -15 -14 -14 -14 -13 -14 -13 -13 -13 -13
-16 -15 -15 -15 -15 -14 -15 -15 -15 -15 -15 -15 -16 -16 -16 -16 -16 -16 -16 -15 -15 -15 -15 -15 -14 -14 -14 -14 -14 -13 -13 -13
-16 -15 -15 -15 -15 -15 -15 -15 -16 -15 -15 -15 -15 -15 -16 -16 -16 -17 -16 -15 -15 -15 -15 -15 -15 -14 -14 -14 -14 -13 -13 -13
-16 -16 -15 -15 -15 -15 -15 -15 -15 -15 -16 -15 -15 -16 -16 -16 -16 -16 -16 -16 -16 -15 -15 -15 -15 -14 -14 -14 -14 -14 -14 -14
-17 -16 -16 -16 -15 -16 -16 -16 -15 -15 -16 -16 -16 -15 -15 -15 -16 -16 -17 -16 -16 -15 -15 -15 -15 -14 -14 -14 -14 -14 -14 -13
-16 -16 -16 -16 -16 -16 -16 -16 -16 -16 -17 -16 -15 -15 -15 -15 -15 -16 -16 -16 -16 -15 -15 -15 -14 -14 -14 -14 -14 -14 -14 -14
-17 -16 -16 -16 -16 -17 -17 -16 -16 -16 -16 -16 -15 -15 -15 -15 -15 -16 -16 -16 -16 -16 -15 -15 -15 -15 -15 -15 -14 -14 -14 -15
-17 -16 -16 -16 -16 -16 -17 -17 -17 -16 -16 -16 -16 -15 -15 -15 -15 -15 -16 -16 -16 -16 -16 -16 -15 -15 -15 -15 -15 -15 -15 -15
Height
5699 5702 5707 5713 5717 5722 5723 5727 5731 5736 5737 5738 5739 5741 5741 5741 5742 5741 5740 5740 5740 5740 5741 5741 5743 5744 5744 5745 5746 5747 5749 5749
5685 5691 5696 5702 5707 5711 5713 5719 5723 5727 5730 5731 5733 5735 5734 5735 5736 5736 5735 5734 5734 5735 5736 5736 5738 5738 5738 5739 5741 5742 5742 5742
5676 5682 5686 5690 5696 5702 5704 5709 5714 5719 5722 5724 5727 5727 5727 5729 5731 5730 5729 5729 5729 5729 5730 5731 5732 5732 5732 5733 5734 5736 5736 5736
5663 5669 5675 5680 5686 5692 5696 5702 5708 5712 5714 5717 5719 5719 5721 5724 5725 5724 5722 5723 5723 5723 5723 5724 5724 5724 5724 5725 5727 5729 5730 5729
5651 5657 5666 5671 5677 5683 5688 5693 5700 5704 5706 5709 5710 5712 5715 5718 5719 5718 5716 5717 5717 5717 5717 5716 5715 5715 5714 5716 5718 5721 5723 5725
5648 5653 5657 5658 5665 5674 5679 5685 5691 5696 5698 5701 5701 5704 5707 5710 5711 5711 5711 5711 5711 5711 5710 5708 5707 5706 5705 5705 5708 5712 5715 5720
5641 5647 5653 5657 5662 5668 5674 5679 5682 5685 5689 5692 5692 5696 5699 5702 5705 5703 5704 5705 5705 5704 5702 5701 5700 5700 5698 5699 5700 5703 5708 5713
5633 5639 5644 5648 5653 5660 5665 5669 5672 5675 5678 5680 5684 5688 5692 5696 5697 5696 5697 5699 5698 5698 5697 5696 5694 5694 5692 5694 5695 5696 5700 5706
5628 5631 5636 5640 5647 5652 5656 5659 5662 5667 5667 5670 5674 5679 5684 5689 5691 5690 5691 5692 5692 5692 5692 5691 5689 5688 5687 5687 5686 5688 5694 5700
5621 5626 5629 5635 5640 5644 5646 5649 5652 5654 5656 5660 5666 5672 5678 5682 5685 5683 5686 5686 5687 5687 5687 5686 5685 5684 5682 5680 5677 5680 5687 5692
5616 5619 5623 5628 5633 5637 5639 5633 5629 5639 5646 5649 5657 5664 5670 5675 5678 5678 5681 5681 5682 5682 5682 5682 5681 5679 5677 5673 5672 5675 5680 5685
5610 5613 5617 5622 5625 5629 5630 5634 5634 5633 5637 5643 5651 5657 5666 5669 5671 5673 5675 5676 5677 5678 5677 5677 5677 5675 5673 5671 5669 5672 5675 5679
5604 5607 5611 5616 5620 5621 5624 5626 5627 5629 5633 5639 5647 5652 5660 5663 5665 5667 5670 5672 5672 5674 5674 5673 5673 5671 5671 5669 5668 5667 5670 5674
5598 5601 5604 5610 5614 5615 5617 5619 5623 5626 5630 5636 5642 5648 5653 5656 5659 5662 5664 5666 5667 5670 5671 5671 5669 5668 5668 5668 5668 5667 5668 5671
5592 5594 5598 5601 5607 5610 5612 5614 5619 5622 5625 5631 5637 5641 5646 5650 5654 5657 5659 5661 5662 5663 5666 5667 5667 5666 5666 5667 5667 5668 5669 5669
5587 5589 5591 5594 5598 5602 5606 5610 5613 5617 5622 5627 5630 5634 5640 5644 5648 5651 5653 5655 5657 5658 5661 5662 5664 5664 5664 5665 5665 5666 5668 5668
5583 5585 5586 5588 5592 5596 5600 5605 5608 5613 5616 5619 5624 5627 5632 5637 5641 5643 5647 5648 5651 5653 5655 5657 5658 5659 5661 5662 5662 5662 5663 5665
5577 5578 5579 5583 5587 5590 5595 5599 5602 5607 5611 5615 5618 5623 5626 5630 5633 5636 5638 5641 5644 5646 5648 5650 5651 5653 5655 5656 5657 5658 5659 5659
5573 5573 5575 5579 5581 5584 5588 5592 5597 5602 5604 5608 5609 5615 5619 5621 5624 5628 5630 5633 5636 5638 5640 5642 5643 5645 5647 5649 5650 5651 5653 5654
Wind_Speed
52 54 50 43 40 41 42 40 37 34 35 36 35 34 30 30 26 28 26 26 22 22 21 24 25 20 18 19 21 24 31 26
49 46 46 46 42 41 42 39 38 36 35 37 34 27 29 29 24 26 25 26 23 22 21 24 24 23 20 20 20 25 26 23
39 41 39 40 39 39 45 41 40 35 35 38 35 29 30 26 24 23 24 24 24 23 23 25 26 28 28 27 26 25 22 27
49 43 33 36 38 38 43 43 40 36 36 39 36 36 28 24 24 21 22 21 22 23 24 28 31 33 34 35 33 30 29 25
37 43 36 39 41 41 39 42 37 34 37 36 39 34 26 24 23 20 20 20 22 24 27 29 28 30 34 35 35 33 31 25
32 35 37 42 42 41 39 41 39 36 39 38 40 33 26 24 22 19 19 21 23 24 25 25 25 27 30 31 34 33 34 26
32 31 35 35 36 35 35 39 40 38 39 38 40 32 29 26 21 18 20 21 22 23 24 25 25 21 20 19 29 32 34 32
29 30 32 34 33 34 37 38 42 40 39 41 38 32 32 27 23 18 20 21 20 21 21 22 21 23 20 21 20 30 30 33
25 26 30 32 33 33 34 41 43 37 40 42 37 34 32 28 24 18 21 20 18 21 21 22 21 23 21 23 25 22 31 34
23 29 29 30 31 34 42 42 43 36 36 42 36 35 31 28 23 19 21 18 17 22 20 21 20 19 19 25 22 35 38 36
24 26 28 28 31 31 29 33 39 32 33 39 40 36 33 28 25 20 21 18 17 20 19 19 18 16 17 17 17 26 32 34
22 25 30 27 26 24 23 26 27 26 29 40 42 37 31 29 23 21 20 20 17 18 18 18 18 15 13 14 8 23 25 32
22 27 29 26 24 21 22 27 33 29 30 39 39 34 33 27 23 21 20 22 18 17 19 17 17 16 12 12 10 14 21 29
17 23 27 29 26 25 25 27 29 31 31 35 37 33 34 27 21 19 20 22 18 18 17 15 15 14 13 9 9 7 13 18
14 18 24 26 24 27 28 27 27 30 31 32 34 38 30 30 23 19 17 22 19 18 19 18 19 15 13 10 10 11 12 16
15 15 21 27 27 27 32 30 31 32 31 33 36 35 30 31 25 20 19 22 23 21 20 21 20 20 19 16 12 11 15 17
17 17 18 23 25 29 34 32 32 33 36 37 35 32 33 35 30 25 23 24 24 25 23 23 25 25 24 23 21 18 16 16
16 16 19 19 26 33 34 36 39 38 40 42 40 39 37 39 33 31 30 27 27 26 27 27 27 28 29 28 27 26 25 23
16 15 20 24 21 33 38 39 40 37 35 36 30 46 38 30 32 34 34 33 30 29 27 27 29 32 31 32 32 33 32 32
Wind_Direction
249 248 247 247 248 243 243 238 236 232 243 252 256 264 271 271 276 276 282 279 265 259 260 265 264 262 257 249 248 254 246 243
246 249 246 248 241 243 243 237 236 234 244 251 255 259 258 265 270 272 278 278 263 258 259 261 261 260 256 255 261 257 261 230
239 244 245 249 243 238 240 237 235 234 242 248 253 248 251 256 263 269 272 269 260 261 261 260 260 260 259 258 258 264 273 227
235 233 244 244 244 238 236 238 233 236 244 246 249 252 252 252 253 269 270 262 260 263 266 269 268 266 263 259 256 254 248 243
234 230 233 241 240 240 236 234 234 239 245 247 247 250 243 246 252 265 266 259 261 267 275 273 271 270 267 257 252 249 249 254
239 240 235 231 231 233 233 238 240 240 247 245 243 243 239 242 251 262 257 257 264 276 277 276 275 276 268 253 246 243 245 238
235 240 243 248 244 237 233 240 243 245 246 246 242 236 235 241 250 260 251 254 269 281 284 282 272 275 254 254 244 238 228 231
236 236 229 238 242 238 237 243 248 248 245 240 231 224 233 237 253 260 253 256 277 282 279 280 278 273 258 241 250 236 232 229
242 235 229 230 233 236 239 243 248 252 245 231 218 220 231 236 252 256 248 259 279 281 271 272 278 267 263 261 259 228 237 227
236 235 232 228 231 235 243 250 254 246 239 225 212 219 227 234 250 250 244 259 276 278 273 274 280 267 263 272 233 215 232 231
243 231 226 224 229 237 246 245 246 222 227 213 211 217 224 231 249 243 241 256 272 281 275 272 271 281 278 280 234 226 221 223
231 229 232 226 225 232 236 237 248 212 225 211 213 217 226 233 241 238 240 252 267 281 278 275 275 285 289 276 236 224 220 210
234 230 226 216 221 237 241 224 224 228 219 212 215 219 223 229 236 236 240 249 260 274 272 283 289 289 287 269 277 221 226 223
240 230 228 224 230 239 237 228 220 220 218 216 217 227 224 223 225 236 238 246 250 263 267 279 283 288 278 267 259 214 198 207
245 240 232 229 229 232 231 227 222 221 223 220 221 228 212 221 221 230 238 245 245 250 255 256 265 273 281 273 253 238 230 203
242 241 236 229 234 233 226 226 224 224 222 215 221 228 210 226 219 224 237 243 247 245 251 259 262 268 275 278 272 248 232 227
257 248 245 234 234 229 223 222 221 220 222 227 224 221 215 230 225 217 234 246 249 250 247 251 258 263 263 263 262 264 257 236
277 263 246 242 235 224 221 220 223 224 228 236 235 225 227 232 235 222 227 239 250 250 252 249 251 255 259 261 259 257 256 255
271 251 243 237 234 225 225 222 227 235 238 246 239 234 235 235 232 233 231 235 241 251 249 253 255 257 258 259 261 260 256 254